CAPE
478 460 447 480 446 417 369 296 209 142 107 46 3 137 274 327 433 567 648 457 195 70 9 1 0 0 0 1 0 1 0 0 0 0 0 0 33 41
718 613 697 817 738 669 589 500 420 340 188 223 62 86 310 333 371 545 484 282 155 63 93 72 4 0 0 0 0 0 0 0 0 0 0 0 26 34
1184 1021 1113 1297 1254 1144 936 718 593 483 314 413 256 179 148 255 446 538 478 332 180 139 62 11 7 0 1 3 0 0 0 0 0 0 0 1 20 32
1689 1460 1379 1532 1581 1645 1519 1190 873 728 546 456 449 388 293 309 409 530 423 401 214 143 85 36 0 0 0 0 0 0 0 8 2 0 0 4 13 22
1858 1684 1678 1749 1622 1708 1795 1710 1386 1007 621 422 512 570 479 528 464 473 546 257 272 100 87 67 0 0 0 0 0 0 0 1 0 0 0 0 0 0
1877 1870 1773 1730 1687 1670 1696 1746 1738 1452 1277 938 878 539 599 659 488 577 458 497 133 52 89 88 4 12 0 0 0 0 0 0 0 0 0 0 0 0
1435 1613 1617 1540 1634 1704 1709 1687 1678 1583 1585 1345 806 900 666 616 581 629 504 84 111 66 75 48 1 1 0 0 0 0 0 0 0 0 0 0 0 2
1196 1145 1148 1252 1346 1420 1569 1709 1520 1484 1071 758 1003 889 663 539 689 783 677 147 135 31 23 22 21 3 0 0 0 0 0 0 0 0 0 0 1 0
1098 1300 1196 1276 1339 1360 1333 1443 1524 1377 1093 639 880 341 960 472 822 786 390 175 367 61 82 82 7 0 0 0 0 0 0 0 0 0 0 0 0 0
511 747 1453 1324 1193 1262 1361 1353 1369 1458 1172 1046 826 488 681 672 783 602 457 239 145 109 94 3 0 0 0 0 0 0 0 0 0 0 0 0 0 0
1 195 536 686 1295 1201 1200 1097 1108 1139 1319 1046 735 547 742 877 537 444 345 156 130 60 9 0 0 0 0 0 0 0 0 0 0 0 0 0 0 0
0 0 0 482 620 740 1119 1078 818 772 823 753 791 556 700 599 515 392 182 160 86 5 0 0 0 0 0 0 0 0 0 0 0 0 0 0 0 0
0 0 0 5 466 548 502 482 537 595 639 641 409 290 341 274 261 401 145 126 25 0 0 0 0 0 0 0 0 0 0 0 0 0 0 0 0 0
0 0 0 0 150 370 555 428 445 335 457 271 187 4 0 174 286 244 86 40 1 0 0 0 0 0 0 0 0 0 0 0 0 0 0 0 0 0
0 0 0 0 79 47 327 522 395 204 351 36 25 0 5 123 151 179 49 43 0 0 0 0 0 0 0 0 0 0 0 0 0 0 0 0 0 0
0 0 0 0 0 0 26 113 303 229 281 14 0 1 224 125 175 77 63 22 0 0 0 0 1 0 0 0 0 0 0 0 0 0 0 0 0 0
0 0 0 0 0 0 1 107 216 185 177 23 1 18 214 57 49 64 37 0 0 1 0 0 0 5 0 0 0 0 0 0 0 0 0 0 0 0
0 0 0 5 36 3 33 158 189 222 318 274 158 86 92 11 25 84 7 2 0 3 1 0 0 0 0 0 0 0 0 0 0 0 0 0 0 0
0 0 0 4 34 20 1 37 159 98 319 209 151 120 42 0 3 8 26 13 0 0 0 0 0 0 0 0 0 0 0 0 0 0 0 0 0 0
0 0 0 30 31 1 47 112 87 127 240 98 102 38 50 34 0 2 0 0 0 0 0 0 0 0 0 0 0 0 0 0 0 0 0 0 0 0
0 1 41 30 15 4 96 144 294 256 43 30 109 11 24 44 0 0 0 0 0 0 0 0 0 0 0 0 0 0 0 0 0 0 0 0 0 0
0 8 26 25 16 113 122 197 294 231 107 22 18 1 0 0 0 0 0 0 0 0 0 0 0 0 0 0 0 0 0 0 0 0 0 0 0 0
0 5 3 99 104 209 223 275 273 191 63 2 2 0 0 0 0 0 0 0 0 0 0 0 0 0 0 0 0 0 0 0 0 0 0 0 0 0
CIN
-153 -148 -139 -146 -130 -142 -134 -115 -87 -176 -273 -306 -50 -249 -147 -106 -66 -44 -9 -21 -61 -77 -119 -18 -0 -0 -0 -0 -0 -0 -0 -0 -0 -0 -0 -0 -22 -11
-70 -91 -104 -108 -110 -116 -134 -131 -114 -93 -142 -237 -247 -253 -143 -100 -62 -16 -12 -57 -74 -114 -100 -98 -56 -0 -0 -0 -0 -0 -0 -0 -0 -0 -0 -0 -6 -12
-25 -40 -61 -59 -59 -69 -87 -114 -132 -113 -84 -196 -199 -198 -200 -139 -50 -29 -34 -43 -75 -73 -131 -182 -136 -0 -0 -0 -0 -0 -0 -0 -0 -0 -0 -1 -2 -4
-0 -5 -20 -19 -20 -13 -23 -61 -89 -100 -67 -99 -121 -159 -146 -122 -60 -46 -42 -31 -62 -80 -108 -146 -5 -0 -0 -0 -0 -0 -0 -2 -0 -0 -0 -0 -0 -0
-2 -2 -2 -1 -5 -11 -6 -6 -23 -53 -91 -80 -73 -107 -99 -75 -62 -45 -20 -66 -45 -100 -116 -139 -0 -0 -0 -0 -0 -0 -0 -0 -0 -0 -0 -0 -0 -0
-2 -2 -2 -2 -1 -2 -7 -8 -5 -18 -25 -36 -24 -88 -73 -48 -52 -35 -26 -21 -85 -142 -112 -112 -129 -171 -0 -0 -0 -0 -0 -0 -0 -0 -0 -0 -0 -0
-9 -6 -5 -6 -5 -1 -0 -5 -7 -9 -8 -14 -39 -30 -57 -63 -59 -23 -6 -101 -79 -113 -99 -119 -120 -46 -0 -0 -0 -0 -0 -0 -0 -0 -0 -0 -0 -0
-4 -13 -22 -13 -15 -14 -10 -17 -20 -9 -29 -46 -40 -38 -66 -60 -26 -1 -0 -67 -86 -145 -102 -119 -140 -172 -0 -0 -0 -0 -0 -0 -0 -0 -0 -0 -0 -0
-11 -0 -4 -8 -10 -13 -17 -6 -5 -11 -17 -57 -20 -105 -17 -64 -8 -0 -12 -66 -4 -78 -64 -64 -155 -0 -0 -0 -0 -0 -0 -0 -0 -0 -0 -0 -0 -0
-48 -29 -0 -0 -4 -5 -0 -1 -7 -6 -19 -4 -5 -38 -10 -6 -1 -5 -2 -18 -47 -51 -59 -153 -0 -0 -0 -0 -0 -0 -0 -0 -0 -0 -0 -0 -0 -0
-49 -117 -36 -22 -0 -0 -0 -0 -0 -2 -2 -3 -4 -9 -0 -0 -0 -1 -4 -63 -52 -73 -106 -0 -0 -0 -0 -0 -0 -0 -0 -0 -0 -0 -0 -0 -0 -0
-0 -0 -0 -45 -39 -27 -0 -0 -1 -0 -1 -1 -0 -0 -0 -0 -0 -10 -39 -33 -37 -36 -0 -0 -0 -0 -0 -0 -0 -0 -0 -0 -0 -0 -0 -0 -0 -0
-0 -0 -0 -88 -32 -28 -28 -16 -14 -0 -2 -0 -6 -9 -0 -0 -43 -5 -23 -23 -94 -0 -0 -0 -0 -0 -0 -0 -0 -0 -0 -0 -0 -0 -0 -0 -0 -0
-0 -0 -0 -0 -95 -26 -15 -64 -44 -8 -0 -1 -0 -3 -0 -2 -2 -5 -23 -41 -77 -0 -0 -0 -0 -0 -0 -0 -0 -0 -0 -0 -0 -0 -0 -0 -0 -0
-0 -0 -0 -0 -89 -109 -23 -9 -40 -65 -3 -10 -7 -0 -62 -6 -7 -0 -5 -4 -7 -0 -0 -0 -0 -0 -0 -0 -0 -0 -0 -0 -0 -0 -0 -0 -0 -0
-0 -0 -0 -0 -0 -0 -132 -52 -14 -29 -1 -16 -0 -0 -0 -8 -0 -5 -1 -9 -0 -0 -0 -0 -0 -0 -0 -0 -0 -0 -0 -0 -0 -0 -0 -0 -0 -0
-0 -0 -0 -0 -0 -0 -47 -68 -12 -8 -8 -53 -0 -33 -0 -2 -19 -0 -0 -0 -0 -0 -0 -0 -0 -0 -0 -0 -0 -0 -0 -0 -0 -0 -0 -0 -0 -0
-0 -0 -0 -1 -87 -109 -107 -55 -31 -3 -0 -1 -0 -1 -2 -3 -15 -0 -2 -5 -0 -0 -0 -0 -0 -0 -0 -0 -0 -0 -0 -0 -0 -0 -0 -0 -0 -0
-0 -0 -0 -2 -143 -140 -5 -85 -24 -32 -0 -3 -0 -0 -1 -0 -25 -2 -0 -2 -0 -0 -0 -0 -0 -0 -0 -0 -0 -0 -0 -0 -0 -0 -0 -0 -0 -0
-0 -0 -0 -109 -58 -1 -82 -48 -48 -24 -2 -5 -1 -41 -4 -14 -0 -1 -0 -0 -0 -0 -0 -0 -0 -0 -0 -0 -0 -0 -0 -0 -0 -0 -0 -0 -0 -0
-0 -25 -169 -153 -151 -88 -43 -39 -11 -4 -32 -32 -7 -15 -5 -4 -0 -0 -0 -0 -0 -0 -0 -0 -0 -0 -0 -0 -0 -0 -0 -0 -0 -0 -0 -0 -0 -0
-0 -209 -193 -182 -187 -74 -35 -13 -8 -13 -8 -36 -13 -0 -0 -0 -0 -0 -0 -0 -0 -0 -0 -0 -0 -0 -0 -0 -0 -0 -0 -0 -0 -0 -0 -0 -0 -0
-0 -171 -94 -93 -87 -39 -26 -6 -0 -0 -30 -6 -1 -0 -0 -0 -0 -0 -0 -0 -0 -0 -0 -0 -0 -0 -0 -0 -0 -0 -0 -0 -0 -0 -0 -0 -0 -0
Wind_Speed
38 37 39 37 41 41 42 43 42 35 32 nan nan 42 44 46 45 44 41 41 45 nan nan nan nan nan nan nan nan nan nan nan nan nan nan nan nan nan
44 43 41 40 41 45 45 46 46 43 35 38 nan nan 45 46 46 44 42 46 49 nan nan nan nan nan nan nan nan nan nan nan nan nan nan nan nan nan
48 46 43 43 45 45 47 46 44 48 45 33 42 44 44 44 46 45 44 43 43 45 nan nan nan nan nan nan nan nan nan nan nan nan nan nan nan nan
48 48 44 49 48 47 48 44 44 44 46 36 47 46 45 44 47 47 43 44 46 46 nan nan nan nan nan nan nan nan nan nan nan nan nan nan nan nan
50 50 48 48 50 49 48 47 45 45 46 46 48 49 45 44 44 46 44 48 47 52 nan nan nan nan nan nan nan nan nan nan nan nan nan nan nan nan
52 53 52 49 47 46 48 48 48 49 49 48 55 53 50 48 47 48 48 47 49 nan nan nan nan nan nan nan nan nan nan nan nan nan nan nan nan nan
51 52 51 47 45 48 52 48 48 49 51 53 57 55 54 53 55 53 53 nan 49 nan nan nan nan nan nan nan nan nan nan nan nan nan nan nan nan nan
46 45 46 48 44 43 44 46 51 52 52 58 57 56 56 56 59 58 58 53 50 nan nan nan nan nan nan nan nan nan nan nan nan nan nan nan nan nan
51 47 44 47 47 42 40 41 44 49 51 61 61 58 59 59 65 65 60 57 53 nan nan nan nan nan nan nan nan nan nan nan nan nan nan nan nan nan
47 46 46 46 44 43 40 41 43 47 53 56 60 63 63 67 68 65 62 63 60 58 nan nan nan nan nan nan nan nan nan nan nan nan nan nan nan nan
nan 60 56 51 49 53 50 52 55 60 62 62 63 75 77 71 72 71 61 61 59 nan nan nan nan nan nan nan nan nan nan nan nan nan nan nan nan nan
nan nan nan 60 58 61 65 63 69 68 75 70 70 78 92 93 75 64 61 56 nan nan nan nan nan nan nan nan nan nan nan nan nan nan nan nan nan nan
nan nan nan nan 73 72 62 65 63 71 71 68 83 67 91 79 65 73 55 55 nan nan nan nan nan nan nan nan nan nan nan nan nan nan nan nan nan nan
nan nan nan nan 72 74 76 84 91 87 81 76 77 nan nan 57 62 63 nan nan nan nan nan nan nan nan nan nan nan nan nan nan nan nan nan nan nan nan
nan nan nan nan nan nan 73 78 77 74 72 nan nan nan nan 85 68 61 nan nan nan nan nan nan nan nan nan nan nan nan nan nan nan nan nan nan nan nan
nan nan nan nan nan nan nan 75 72 69 72 nan nan nan 88 79 76 nan nan nan nan nan nan nan nan nan nan nan nan nan nan nan nan nan nan nan nan nan
nan nan nan nan nan nan nan 80 78 75 74 nan nan nan 76 nan nan nan nan nan nan nan nan nan nan nan nan nan nan nan nan nan nan nan nan nan nan nan
nan nan nan nan nan nan nan 83 84 85 80 82 79 nan nan nan nan nan nan nan nan nan nan nan nan nan nan nan nan nan nan nan nan nan nan nan nan nan
nan nan nan nan nan nan nan nan 89 nan 89 83 84 73 nan nan nan nan nan nan nan nan nan nan nan nan nan nan nan nan nan nan nan nan nan nan nan nan
nan nan nan nan nan nan nan 87 nan 87 85 nan 80 nan nan nan nan nan nan nan nan nan nan nan nan nan nan nan nan nan nan nan nan nan nan nan nan nan
nan nan nan nan nan nan nan 60 58 63 nan nan 73 nan nan nan nan nan nan nan nan nan nan nan nan nan nan nan nan nan nan nan nan nan nan nan nan nan
nan nan nan nan nan 55 58 56 58 55 60 nan nan nan nan nan nan nan nan nan nan nan nan nan nan nan nan nan nan nan nan nan nan nan nan nan nan nan
nan nan nan nan 41 45 47 51 57 58 nan nan nan nan nan nan nan nan nan nan nan nan nan nan nan nan nan nan nan nan nan nan nan nan nan nan nan nan
Wind_Direction
283 283 282 281 281 284 286 288 290 288 287 nan nan 286 287 289 292 296 298 299 295 nan nan nan nan nan nan nan nan nan nan nan nan nan nan nan nan nan
277 281 283 281 281 281 284 286 288 293 290 287 nan nan 285 286 289 289 288 293 297 nan nan nan nan nan nan nan nan nan nan nan nan nan nan nan nan nan
276 281 285 287 283 282 283 286 290 291 298 289 283 282 283 284 284 284 289 291 294 300 nan nan nan nan nan nan nan nan nan nan nan nan nan nan nan nan
276 278 283 280 285 286 284 291 291 289 291 297 282 284 286 287 288 289 289 290 290 296 nan nan nan nan nan nan nan nan nan nan nan nan nan nan nan nan
273 275 277 277 279 280 284 285 285 285 288 290 285 279 281 284 285 286 289 287 287 296 nan nan nan nan nan nan nan nan nan nan nan nan nan nan nan nan
268 270 271 274 277 278 280 285 286 287 288 288 283 281 280 282 285 289 285 281 285 nan nan nan nan nan nan nan nan nan nan nan nan nan nan nan nan nan
261 265 268 272 276 279 277 281 285 285 284 285 282 281 279 282 289 285 283 nan 281 nan nan nan nan nan nan nan nan nan nan nan nan nan nan nan nan nan
260 263 267 270 274 281 288 290 290 288 286 283 285 287 284 281 283 283 278 279 285 nan nan nan nan nan nan nan nan nan nan nan nan nan nan nan nan nan
258 258 260 265 275 278 281 283 287 292 293 288 290 290 286 283 281 279 279 281 280 nan nan nan nan nan nan nan nan nan nan nan nan nan nan nan nan nan
258 257 262 261 265 278 279 278 283 289 288 281 287 287 286 279 279 276 281 278 274 276 nan nan nan nan nan nan nan nan nan nan nan nan nan nan nan nan
nan 257 259 256 263 277 276 274 273 274 270 281 281 284 282 276 272 265 269 277 275 nan nan nan nan nan nan nan nan nan nan nan nan nan nan nan nan nan
nan nan nan 259 255 269 275 275 276 282 282 279 276 279 283 279 276 268 267 276 nan nan nan nan nan nan nan nan nan nan nan nan nan nan nan nan nan nan
nan nan nan nan 261 261 268 271 273 271 273 272 274 269 281 256 268 270 268 279 nan nan nan nan nan nan nan nan nan nan nan nan nan nan nan nan nan nan
nan nan nan nan 259 265 265 266 272 270 268 272 274 nan nan 282 274 264 nan nan nan nan nan nan nan nan nan nan nan nan nan nan nan nan nan nan nan nan
nan nan nan nan nan nan 265 270 271 270 272 nan nan nan nan 280 288 267 nan nan nan nan nan nan nan nan nan nan nan nan nan nan nan nan nan nan nan nan
nan nan nan nan nan nan nan 263 262 268 273 nan nan nan 276 276 289 nan nan nan nan nan nan nan nan nan nan nan nan nan nan nan nan nan nan nan nan nan
nan nan nan nan nan nan nan 261 259 258 261 nan nan nan 291 nan nan nan nan nan nan nan nan nan nan nan nan nan nan nan nan nan nan nan nan nan nan nan
nan nan nan nan nan nan nan 260 262 261 261 263 264 nan nan nan nan nan nan nan nan nan nan nan nan nan nan nan nan nan nan nan nan nan nan nan nan nan
nan nan nan nan nan nan nan nan 263 nan 262 261 262 274 nan nan nan nan nan nan nan nan nan nan nan nan nan nan nan nan nan nan nan nan nan nan nan nan
nan nan nan nan nan nan nan 261 nan 262 261 nan 261 nan nan nan nan nan nan nan nan nan nan nan nan nan nan nan nan nan nan nan nan nan nan nan nan nan
nan nan nan nan nan nan nan 261 263 262 nan nan 260 nan nan nan nan nan nan nan nan nan nan nan nan nan nan nan nan nan nan nan nan nan nan nan nan nan
nan nan nan nan nan 270 258 258 260 264 262 nan nan nan nan nan nan nan nan nan nan nan nan nan nan nan nan nan nan nan nan nan nan nan nan nan nan nan
nan nan nan nan 270 268 264 261 258 258 nan nan nan nan nan nan nan nan nan nan nan nan nan nan nan nan nan nan nan nan nan nan nan nan nan nan nan nan